RYR36RH EPMO-EBCI

Flight info

Callsign RYR36RH
Flight time 1h 46m
Altitude 34000
Route OLILA T270 RILAB L621 GRUDA DCT ALUKA DCT POVEL DCT ABAMI Z717 NEREL T855 BATTY
Aircraft B38M/M-SADE3FGILRWY/SB1

Departure

Time 2026-04-29 16:08
Airport Warsaw Modlin Airport (EPMO)

Arrival

Time 2026-04-29 17:55
Airport Brussels South Charleroi Airport (EBCI)
Time Latitude Longitude Altitude Speed Heading
2026-04-29 15:39 52.44722 20.65019 340 ft 0 kts 206°
2026-04-29 15:59 52.44733 20.65028 340 ft 4 kts 206°
2026-04-29 15:59 52.44753 20.65044 339 ft 4 kts 216°
2026-04-29 15:59 52.44770 20.65076 336 ft 4 kts 243°
2026-04-29 16:00 52.44777 20.65109 340 ft 0 kts 262°
2026-04-29 16:03 52.44775 20.65087 337 ft 3 kts 262°
2026-04-29 16:04 52.44769 20.65017 338 ft 10 kts 261°
2026-04-29 16:04 52.44753 20.64855 340 ft 17 kts 261°
2026-04-29 16:04 52.44734 20.64660 338 ft 16 kts 261°
2026-04-29 16:04 52.44715 20.64461 340 ft 19 kts 261°
2026-04-29 16:05 52.44694 20.64238 340 ft 21 kts 261°
2026-04-29 16:05 52.44674 20.64023 338 ft 20 kts 261°
2026-04-29 16:05 52.44653 20.63793 339 ft 18 kts 261°
2026-04-29 16:05 52.44637 20.63621 340 ft 13 kts 262°
2026-04-29 16:06 52.44635 20.63475 336 ft 13 kts 302°
2026-04-29 16:06 52.44693 20.63441 335 ft 3 kts 352°
2026-04-29 16:06 52.44725 20.63433 337 ft 6 kts 352°
2026-04-29 16:06 52.44776 20.63421 340 ft 9 kts 352°
2026-04-29 16:07 52.44844 20.63404 339 ft 11 kts 351°
2026-04-29 16:07 52.44930 20.63408 340 ft 13 kts 20°
2026-04-29 16:07 52.44968 20.63536 337 ft 15 kts 82°
2026-04-29 16:07 52.45000 20.63887 341 ft 66 kts 82°
2026-04-29 16:08 52.45113 20.65082 346 ft 143 kts 82°
2026-04-29 16:08 52.45291 20.66864 869 ft 165 kts 71°
2026-04-29 16:08 52.45613 20.68647 2013 ft 160 kts 73°
2026-04-29 16:08 52.45790 20.70553 2682 ft 179 kts 79°
2026-04-29 16:09 52.45945 20.72692 3165 ft 204 kts 80°
2026-04-29 16:09 52.46173 20.75141 3658 ft 229 kts 70°
2026-04-29 16:09 52.47111 20.77306 4235 ft 243 kts 33°
2026-04-29 16:09 52.48706 20.78240 5134 ft 245 kts
2026-04-29 16:10 52.50413 20.78110 6103 ft 250 kts 346°
2026-04-29 16:10 52.51967 20.76881 7032 ft 256 kts 323°
2026-04-29 16:10 52.53151 20.74661 7939 ft 263 kts 304°
2026-04-29 16:10 52.54173 20.72117 8794 ft 269 kts 307°
2026-04-29 16:11 52.55241 20.69559 9708 ft 273 kts 308°
2026-04-29 16:11 52.56329 20.66951 10559 ft 278 kts 308°
2026-04-29 16:11 52.57459 20.64248 11072 ft 296 kts 308°
2026-04-29 16:11 52.58655 20.61391 11540 ft 311 kts 308°
2026-04-29 16:12 52.59902 20.58404 12198 ft 320 kts 308°
2026-04-29 16:12 52.61145 20.55405 13024 ft 324 kts 308°
2026-04-29 16:12 52.62432 20.52298 13776 ft 331 kts 308°
2026-04-29 16:12 52.63743 20.49126 14524 ft 336 kts 308°
2026-04-29 16:13 52.65068 20.45918 15233 ft 340 kts 308°
2026-04-29 16:13 52.66389 20.42710 15944 ft 344 kts 309°
2026-04-29 16:13 52.67738 20.39430 16661 ft 348 kts 309°
2026-04-29 16:13 52.69105 20.36102 17389 ft 352 kts 309°
2026-04-29 16:14 52.70222 20.32462 18082 ft 364 kts 291°
2026-04-29 16:14 52.70635 20.28296 18785 ft 373 kts 281°
2026-04-29 16:14 52.70917 20.24007 19346 ft 377 kts 281°
2026-04-29 16:14 52.71183 20.19698 19950 ft 379 kts 280°
2026-04-29 16:15 52.71436 20.15400 20534 ft 382 kts 280°
2026-04-29 16:15 52.71686 20.11015 21118 ft 385 kts 280°
2026-04-29 16:15 52.71934 20.06599 21690 ft 388 kts 280°
2026-04-29 16:15 52.72181 20.02141 22261 ft 390 kts 280°
2026-04-29 16:16 52.72429 19.97652 22828 ft 393 kts 280°
2026-04-29 16:16 52.72673 19.93193 23383 ft 396 kts 280°
2026-04-29 16:16 52.72920 19.88642 23939 ft 399 kts 280°
2026-04-29 16:16 52.73167 19.84065 24398 ft 402 kts 280°
2026-04-29 16:17 52.73415 19.79432 24827 ft 406 kts 280°
2026-04-29 16:17 52.73664 19.74760 25253 ft 410 kts 281°
2026-04-29 16:17 52.73912 19.70046 25674 ft 414 kts 281°
2026-04-29 16:17 52.74158 19.65352 26094 ft 417 kts 281°
2026-04-29 16:18 52.74407 19.60548 26511 ft 421 kts 281°
2026-04-29 16:18 52.74656 19.55717 26925 ft 424 kts 281°
2026-04-29 16:18 52.74906 19.50830 27330 ft 428 kts 282°
2026-04-29 16:18 52.75152 19.45966 27692 ft 432 kts 282°
2026-04-29 16:19 52.75402 19.40996 28081 ft 436 kts 282°
2026-04-29 16:19 52.75652 19.35979 28430 ft 440 kts 283°
2026-04-29 16:19 52.75902 19.30930 28807 ft 443 kts 283°
2026-04-29 16:19 52.76151 19.25830 29165 ft 447 kts 283°
2026-04-29 16:20 52.76401 19.20684 29538 ft 450 kts 283°
2026-04-29 16:20 52.76650 19.15500 29898 ft 454 kts 283°
2026-04-29 16:20 52.76896 19.10353 30242 ft 457 kts 283°
2026-04-29 16:20 52.77144 19.05093 30566 ft 460 kts 283°
2026-04-29 16:21 52.77391 18.99785 30869 ft 463 kts 283°
2026-04-29 16:21 52.77637 18.94467 31159 ft 464 kts 283°
2026-04-29 16:21 52.77880 18.89192 31430 ft 468 kts 283°
2026-04-29 16:21 52.78123 18.83820 31725 ft 470 kts 283°
2026-04-29 16:22 52.78365 18.78414 32044 ft 472 kts 282°
2026-04-29 16:22 52.78607 18.72989 32362 ft 474 kts 282°
2026-04-29 16:22 52.78846 18.67543 32669 ft 475 kts 282°
2026-04-29 16:22 52.79081 18.62152 33042 ft 475 kts 282°
2026-04-29 16:23 52.79315 18.56719 33478 ft 473 kts 281°
2026-04-29 16:23 52.79547 18.51291 33897 ft 472 kts 281°
2026-04-29 16:23 52.79775 18.45875 34303 ft 471 kts 280°
2026-04-29 16:23 52.80002 18.40463 34415 ft 471 kts 281°
2026-04-29 16:24 52.80225 18.35058 34417 ft 469 kts 281°
2026-04-29 16:24 52.80660 18.24346 34418 ft 469 kts 281°
2026-04-29 16:25 52.81088 18.13569 34420 ft 469 kts 280°
2026-04-29 16:25 52.81503 18.02863 34421 ft 469 kts 280°
2026-04-29 16:26 52.81911 17.92085 34423 ft 469 kts 280°
2026-04-29 16:26 52.82309 17.81290 34429 ft 471 kts 280°
2026-04-29 16:27 52.82700 17.70447 34422 ft 471 kts 280°
2026-04-29 16:27 52.83081 17.59612 34419 ft 471 kts 280°
2026-04-29 16:28 52.83448 17.48869 34427 ft 471 kts 280°
2026-04-29 16:28 52.83809 17.38032 34381 ft 471 kts 281°
2026-04-29 16:29 52.84159 17.27203 34429 ft 469 kts 281°
2026-04-29 16:29 52.84496 17.16500 34432 ft 469 kts 280°
2026-04-29 16:30 52.84826 17.05692 34427 ft 469 kts 280°
2026-04-29 16:30 52.85146 16.94900 34433 ft 469 kts 280°
2026-04-29 16:31 52.85454 16.84175 34405 ft 467 kts 280°
2026-04-29 16:31 52.85752 16.73449 34439 ft 466 kts 280°
2026-04-29 16:32 52.86039 16.62793 34434 ft 465 kts 280°
2026-04-29 16:32 52.86318 16.52070 34437 ft 466 kts 280°
2026-04-29 16:33 52.86717 16.36055 34386 ft 466 kts 280°
2026-04-29 16:33 52.86972 16.25321 34438 ft 463 kts 279°
2026-04-29 16:34 52.87214 16.14733 34435 ft 462 kts 279°
2026-04-29 16:34 52.87449 16.04076 34436 ft 462 kts 279°
2026-04-29 16:35 52.87671 15.93507 34443 ft 462 kts 279°
2026-04-29 16:35 52.87887 15.82859 34389 ft 462 kts 279°
2026-04-29 16:36 52.88093 15.72167 34445 ft 464 kts 279°
2026-04-29 16:36 52.88290 15.61465 34439 ft 464 kts 279°
2026-04-29 16:37 52.88475 15.50835 34443 ft 464 kts 279°
2026-04-29 16:37 52.88624 15.41946 34445 ft 464 kts 279°
2026-04-29 16:38 52.88821 15.29450 34373 ft 465 kts 280°
2026-04-29 16:38 52.88981 15.18646 34438 ft 471 kts 279°
2026-04-29 16:39 52.89130 15.07864 34438 ft 470 kts 279°
2026-04-29 16:39 52.89271 14.97025 34438 ft 470 kts 279°
2026-04-29 16:40 52.89403 14.86246 34456 ft 470 kts 279°
2026-04-29 16:40 52.89528 14.75431 34443 ft 470 kts 279°
2026-04-29 16:41 52.89643 14.64575 34453 ft 470 kts 279°
2026-04-29 16:41 52.89750 14.53724 34441 ft 471 kts 279°
2026-04-29 16:42 52.89846 14.42941 34445 ft 471 kts 279°
2026-04-29 16:42 52.89845 14.32054 34430 ft 478 kts 271°
2026-04-29 16:43 52.89097 14.26684 34397 ft 488 kts 256°
2026-04-29 16:43 52.87988 14.21353 34447 ft 490 kts 257°
2026-04-29 16:43 52.85835 14.10694 34454 ft 487 kts 257°
2026-04-29 16:44 52.83650 14.00069 34451 ft 488 kts 257°
2026-04-29 16:44 52.81448 13.89429 34455 ft 488 kts 256°
2026-04-29 16:45 52.79250 13.78861 34456 ft 488 kts 256°
2026-04-29 16:45 52.77029 13.68243 34405 ft 488 kts 256°
2026-04-29 16:46 52.74801 13.57644 34460 ft 490 kts 256°
2026-04-29 16:46 52.72572 13.47101 34453 ft 489 kts 256°
2026-04-29 16:47 52.70314 13.36471 34453 ft 489 kts 256°
2026-04-29 16:47 52.68064 13.25936 34454 ft 489 kts 256°
2026-04-29 16:48 52.65792 13.15356 34454 ft 489 kts 256°
2026-04-29 16:48 52.63520 13.04827 34447 ft 489 kts 255°
2026-04-29 16:49 52.61601 12.95974 34454 ft 490 kts 255°
2026-04-29 16:49 52.59305 12.85434 34447 ft 489 kts 255°
2026-04-29 16:50 52.57009 12.74948 34446 ft 490 kts 255°
2026-04-29 16:50 52.54694 12.64431 34438 ft 488 kts 255°
2026-04-29 16:51 52.52377 12.53954 34400 ft 488 kts 255°
2026-04-29 16:51 52.50049 12.43480 34440 ft 488 kts 255°
2026-04-29 16:52 52.47709 12.33007 34433 ft 488 kts 255°
2026-04-29 16:52 52.45372 12.22602 34434 ft 488 kts 254°
2026-04-29 16:53 52.43013 12.12148 34438 ft 488 kts 254°
2026-04-29 16:53 52.40656 12.01754 34436 ft 488 kts 254°
2026-04-29 16:54 52.38282 11.91336 34433 ft 486 kts 253°
2026-04-29 16:54 52.35906 11.80962 34426 ft 486 kts 253°
2026-04-29 16:55 52.33538 11.70673 34429 ft 485 kts 253°
2026-04-29 16:55 52.31140 11.60307 34426 ft 485 kts 253°
2026-04-29 16:56 52.28758 11.50056 34428 ft 486 kts 253°
2026-04-29 16:56 52.26348 11.39736 34396 ft 486 kts 253°
2026-04-29 16:57 52.23930 11.29429 34426 ft 485 kts 253°
2026-04-29 16:57 52.21508 11.19155 34425 ft 484 kts 252°
2026-04-29 16:58 52.19099 11.08978 34425 ft 483 kts 252°
2026-04-29 16:58 52.16670 10.98755 34426 ft 483 kts 252°
2026-04-29 16:59 52.14247 10.88601 34416 ft 483 kts 252°
2026-04-29 16:59 52.12126 10.78276 34423 ft 479 kts 258°
2026-04-29 17:00 52.10280 10.67811 34418 ft 480 kts 257°
2026-04-29 17:00 52.08393 10.57459 34420 ft 480 kts 257°
2026-04-29 17:01 52.06475 10.47025 34417 ft 480 kts 257°
2026-04-29 17:01 52.04568 10.36710 34419 ft 479 kts 257°
2026-04-29 17:02 52.02643 10.26351 34404 ft 479 kts 257°
2026-04-29 17:02 52.00700 10.15960 34391 ft 479 kts 257°
2026-04-29 17:03 51.98754 10.05609 34398 ft 479 kts 256°
2026-04-29 17:03 51.96811 9.95326 34392 ft 480 kts 256°
2026-04-29 17:04 51.94844 9.84979 34380 ft 479 kts 256°
2026-04-29 17:04 51.92884 9.74721 34367 ft 479 kts 256°
2026-04-29 17:05 51.90899 9.64392 34386 ft 479 kts 256°
2026-04-29 17:05 51.88909 9.54093 34384 ft 478 kts 256°
2026-04-29 17:06 51.86927 9.43884 34381 ft 478 kts 256°
2026-04-29 17:06 51.84920 9.33609 34381 ft 478 kts 255°
2026-04-29 17:07 51.82918 9.23408 34382 ft 478 kts 255°
2026-04-29 17:07 51.80895 9.13156 34383 ft 478 kts 255°
2026-04-29 17:08 51.78865 9.02924 34371 ft 478 kts 255°
2026-04-29 17:08 51.76838 8.92760 34365 ft 478 kts 255°
2026-04-29 17:09 51.74787 8.82532 34356 ft 478 kts 255°
2026-04-29 17:09 51.72728 8.72319 34325 ft 478 kts 255°
2026-04-29 17:10 51.70675 8.62183 34344 ft 477 kts 255°
2026-04-29 17:10 51.68605 8.52014 34347 ft 477 kts 255°
2026-04-29 17:11 51.66521 8.41834 34357 ft 477 kts 254°
2026-04-29 17:11 51.64445 8.31742 34357 ft 477 kts 254°
2026-04-29 17:12 51.61866 8.21909 34307 ft 479 kts 236°
2026-04-29 17:12 51.58852 8.14400 34345 ft 481 kts 239°
2026-04-29 17:13 51.54782 8.03740 34340 ft 480 kts 239°
2026-04-29 17:13 51.51275 7.94597 34332 ft 479 kts 239°
2026-04-29 17:14 51.47795 7.85556 34325 ft 479 kts 239°
2026-04-29 17:14 51.44274 7.76437 34319 ft 479 kts 239°
2026-04-29 17:15 51.40763 7.67381 34197 ft 471 kts 238°
2026-04-29 17:15 51.39047 7.62968 33883 ft 462 kts 238°
2026-04-29 17:15 51.37379 7.58682 33571 ft 455 kts 238°
2026-04-29 17:16 51.35714 7.54414 33268 ft 449 kts 238°
2026-04-29 17:16 51.34061 7.50182 32964 ft 447 kts 238°
2026-04-29 17:16 51.32413 7.45970 32699 ft 446 kts 238°
2026-04-29 17:16 51.30746 7.41715 32407 ft 457 kts 238°
2026-04-29 17:17 51.29035 7.37352 32275 ft 468 kts 238°
2026-04-29 17:17 51.27286 7.32903 32288 ft 476 kts 238°
2026-04-29 17:17 51.23717 7.23848 32304 ft 483 kts 238°
2026-04-29 17:18 51.20150 7.14831 32294 ft 482 kts 238°
2026-04-29 17:18 51.16573 7.05822 32296 ft 480 kts 237°
2026-04-29 17:19 51.12996 6.96842 32302 ft 480 kts 237°
2026-04-29 17:19 51.09392 6.87824 32292 ft 489 kts 237°
2026-04-29 17:20 51.07540 6.83205 31690 ft 498 kts 237°
2026-04-29 17:20 51.05682 6.78577 30604 ft 494 kts 237°
2026-04-29 17:20 51.03838 6.73990 29400 ft 491 kts 237°
2026-04-29 17:20 51.02023 6.69486 28234 ft 488 kts 237°
2026-04-29 17:21 51.00197 6.64963 27115 ft 484 kts 237°
2026-04-29 17:21 50.98390 6.60494 26030 ft 479 kts 237°
2026-04-29 17:21 50.96598 6.56069 25026 ft 473 kts 237°
2026-04-29 17:21 50.94826 6.51702 24070 ft 467 kts 236°
2026-04-29 17:22 50.93075 6.47390 22996 ft 461 kts 237°
2026-04-29 17:22 50.91361 6.43108 21971 ft 454 kts 240°
2026-04-29 17:22 50.90158 6.38607 21037 ft 444 kts 257°
2026-04-29 17:22 50.89443 6.33891 20168 ft 435 kts 256°
2026-04-29 17:23 50.88626 6.29312 19321 ft 427 kts 256°
2026-04-29 17:23 50.87799 6.24837 18598 ft 418 kts 255°
2026-04-29 17:23 50.86983 6.20501 18020 ft 404 kts 255°
2026-04-29 17:23 50.86196 6.16370 17551 ft 389 kts 255°
2026-04-29 17:24 50.85427 6.12353 17135 ft 375 kts 255°
2026-04-29 17:24 50.84679 6.08461 16702 ft 367 kts 255°
2026-04-29 17:24 50.83916 6.04509 16263 ft 378 kts 255°
2026-04-29 17:24 50.83140 6.00502 15851 ft 382 kts 255°
2026-04-29 17:25 50.82359 5.96477 15448 ft 382 kts 254°
2026-04-29 17:25 50.81589 5.92515 15026 ft 380 kts 254°
2026-04-29 17:25 50.80812 5.88527 14603 ft 378 kts 254°
2026-04-29 17:25 50.80041 5.84575 14196 ft 375 kts 254°
2026-04-29 17:26 50.79272 5.80639 13728 ft 374 kts 254°
2026-04-29 17:26 50.78501 5.76705 13290 ft 372 kts 254°
2026-04-29 17:26 50.77735 5.72804 12846 ft 370 kts 253°
2026-04-29 17:26 50.76977 5.68950 12430 ft 366 kts 253°
2026-04-29 17:27 50.76222 5.65121 12021 ft 364 kts 253°
2026-04-29 17:27 50.75481 5.61368 11572 ft 362 kts 253°
2026-04-29 17:27 50.74733 5.57590 11253 ft 356 kts 253°
2026-04-29 17:27 50.74003 5.53900 11099 ft 346 kts 253°
2026-04-29 17:28 50.73291 5.50315 10951 ft 337 kts 252°
2026-04-29 17:28 50.72599 5.46835 10773 ft 328 kts 252°
2026-04-29 17:28 50.71922 5.43442 10637 ft 319 kts 252°
2026-04-29 17:28 50.71263 5.40142 10484 ft 311 kts 252°
2026-04-29 17:29 50.70626 5.36956 10341 ft 303 kts 252°
2026-04-29 17:29 50.69998 5.33821 10146 ft 298 kts 252°
2026-04-29 17:29 50.69373 5.30709 9814 ft 297 kts 252°
2026-04-29 17:29 50.68959 5.28647 9582 ft 297 kts 252°
2026-04-29 17:30 50.68124 5.24501 9144 ft 295 kts 251°
2026-04-29 17:30 50.67510 5.21459 8836 ft 294 kts 251°
2026-04-29 17:30 50.66890 5.18391 8522 ft 292 kts 251°
2026-04-29 17:30 50.66272 5.15352 8281 ft 288 kts 250°
2026-04-29 17:31 50.65662 5.12397 8185 ft 278 kts 250°
2026-04-29 17:31 50.65069 5.09534 8106 ft 275 kts 250°
2026-04-29 17:31 50.64461 5.06601 8048 ft 285 kts 250°
2026-04-29 17:31 50.63840 5.03605 8023 ft 290 kts 250°
2026-04-29 17:32 50.63218 5.00611 8030 ft 290 kts 250°
2026-04-29 17:32 50.62589 4.97584 8022 ft 291 kts 250°
2026-04-29 17:32 50.61959 4.94557 8017 ft 290 kts 250°
2026-04-29 17:32 50.61325 4.91519 8015 ft 292 kts 250°
2026-04-29 17:33 50.60692 4.88486 8014 ft 290 kts 250°
2026-04-29 17:33 50.60059 4.85461 8015 ft 291 kts 250°
2026-04-29 17:33 50.59432 4.82468 8004 ft 290 kts 250°
2026-04-29 17:33 50.58797 4.79443 7943 ft 290 kts 250°
2026-04-29 17:34 50.58163 4.76426 7898 ft 290 kts 250°
2026-04-29 17:34 50.57743 4.74429 7866 ft 290 kts 249°
2026-04-29 17:34 50.57107 4.71407 7820 ft 290 kts 250°
2026-04-29 17:34 50.56262 4.67407 7752 ft 289 kts 250°
2026-04-29 17:35 50.55414 4.63399 7676 ft 288 kts 250°
2026-04-29 17:35 50.54571 4.59416 7608 ft 289 kts 249°
2026-04-29 17:35 50.53722 4.55413 7429 ft 291 kts 249°
2026-04-29 17:36 50.53287 4.53369 7264 ft 291 kts 250°
2026-04-29 17:36 50.52650 4.50376 6964 ft 292 kts 250°
2026-04-29 17:36 50.52002 4.47331 6625 ft 292 kts 250°
2026-04-29 17:36 50.51355 4.44300 6283 ft 292 kts 249°
2026-04-29 17:37 50.50708 4.41276 5955 ft 292 kts 249°
2026-04-29 17:37 50.50062 4.38261 5630 ft 290 kts 249°
2026-04-29 17:37 50.49419 4.35261 5335 ft 289 kts 248°
2026-04-29 17:37 50.48789 4.32324 5106 ft 284 kts 249°
2026-04-29 17:38 50.48166 4.29419 4916 ft 279 kts 248°
2026-04-29 17:38 50.47501 4.26565 4654 ft 275 kts 243°
2026-04-29 17:38 50.46713 4.23848 4411 ft 271 kts 242°
2026-04-29 17:38 50.45918 4.21208 4227 ft 263 kts 234°
2026-04-29 17:39 50.44630 4.19347 3891 ft 248 kts 196°
2026-04-29 17:39 50.43024 4.19046 3664 ft 225 kts 162°
2026-04-29 17:39 50.41608 4.19807 3572 ft 208 kts 151°
2026-04-29 17:39 50.40372 4.20845 3458 ft 196 kts 129°
2026-04-29 17:40 50.39805 4.22640 3198 ft 185 kts 93°
2026-04-29 17:40 50.40047 4.24578 3024 ft 180 kts 68°
2026-04-29 17:40 50.40536 4.26338 2904 ft 172 kts 68°
2026-04-29 17:40 50.41011 4.28034 2796 ft 165 kts 68°
2026-04-29 17:41 50.41458 4.29620 2683 ft 155 kts 68°
2026-04-29 17:41 50.41892 4.31142 2474 ft 150 kts 68°
2026-04-29 17:41 50.42312 4.32607 2186 ft 148 kts 68°
2026-04-29 17:41 50.42731 4.34061 1922 ft 144 kts 67°
2026-04-29 17:42 50.43134 4.35462 1732 ft 138 kts 66°
2026-04-29 17:42 50.43520 4.36793 1682 ft 127 kts 68°
2026-04-29 17:42 50.43882 4.38029 1537 ft 122 kts 68°
2026-04-29 17:42 50.44230 4.39237 1326 ft 121 kts 67°
2026-04-29 17:43 50.44579 4.40436 1089 ft 123 kts 65°
2026-04-29 17:43 50.44947 4.41689 955 ft 128 kts 65°
2026-04-29 17:43 50.45303 4.42933 787 ft 127 kts 62°
2026-04-29 17:43 50.45715 4.44296 1233 ft 151 kts 65°
2026-04-29 17:44 50.46173 4.45883 1817 ft 166 kts 67°
2026-04-29 17:44 50.46658 4.47600 2423 ft 180 kts 68°
2026-04-29 17:44 50.47172 4.49468 2485 ft 190 kts 69°
2026-04-29 17:44 50.47695 4.51371 2279 ft 188 kts 67°
2026-04-29 17:45 50.48254 4.53204 2349 ft 185 kts 65°
2026-04-29 17:45 50.48851 4.54998 2487 ft 185 kts 64°
2026-04-29 17:45 50.49704 4.56468 2523 ft 193 kts 31°
2026-04-29 17:45 50.51078 4.56575 2581 ft 214 kts 350°
2026-04-29 17:46 50.52528 4.55608 2739 ft 235 kts 342°
2026-04-29 17:46 50.54018 4.54520 2800 ft 242 kts 342°
2026-04-29 17:46 50.55475 4.53114 2860 ft 255 kts 318°
2026-04-29 17:46 50.56269 4.50592 2914 ft 266 kts 279°
2026-04-29 17:47 50.56112 4.47690 3001 ft 269 kts 253°
2026-04-29 17:47 50.55319 4.45063 3002 ft 265 kts 233°
2026-04-29 17:47 50.54274 4.42675 3023 ft 265 kts 233°
2026-04-29 17:47 50.53235 4.40271 2978 ft 266 kts 233°
2026-04-29 17:48 50.52197 4.37851 2990 ft 267 kts 233°
2026-04-29 17:48 50.51162 4.35429 3012 ft 266 kts 233°
2026-04-29 17:48 50.50131 4.33016 2998 ft 266 kts 233°
2026-04-29 17:48 50.49114 4.30628 2981 ft 266 kts 233°
2026-04-29 17:49 50.48082 4.28209 2973 ft 267 kts 232°
2026-04-29 17:49 50.47173 4.25644 3012 ft 271 kts 243°
2026-04-29 17:49 50.46380 4.22954 2998 ft 269 kts 243°
2026-04-29 17:49 50.45445 4.20484 2954 ft 257 kts 220°
2026-04-29 17:50 50.43962 4.19221 2990 ft 235 kts 182°
2026-04-29 17:50 50.42399 4.19368 3027 ft 217 kts 154°
2026-04-29 17:50 50.41059 4.20237 3019 ft 197 kts 140°
2026-04-29 17:50 50.40217 4.21721 2960 ft 180 kts 108°
2026-04-29 17:51 50.40053 4.23561 2953 ft 167 kts 82°
2026-04-29 17:51 50.40403 4.25341 3008 ft 175 kts 71°
2026-04-29 17:51 50.40845 4.27103 2889 ft 171 kts 70°
2026-04-29 17:51 50.41295 4.28806 2744 ft 165 kts 69°
2026-04-29 17:52 50.41739 4.30439 2529 ft 162 kts 69°
2026-04-29 17:52 50.42035 4.31509 2361 ft 160 kts 68°
2026-04-29 17:52 50.42616 4.33571 1975 ft 148 kts 68°
2026-04-29 17:52 50.43016 4.34996 1780 ft 140 kts 68°
2026-04-29 17:53 50.43386 4.36329 1698 ft 124 kts 68°
2026-04-29 17:53 50.43737 4.37539 1596 ft 120 kts 68°
2026-04-29 17:53 50.44082 4.38720 1421 ft 122 kts 68°
2026-04-29 17:53 50.44431 4.39909 1260 ft 116 kts 66°
2026-04-29 17:54 50.44775 4.41099 1060 ft 124 kts 64°
2026-04-29 17:54 50.45135 4.42342 836 ft 124 kts 67°
2026-04-29 17:54 50.45493 4.43587 721 ft 123 kts 64°
2026-04-29 17:54 50.45835 4.44773 602 ft 111 kts 64°
2026-04-29 17:55 50.46115 4.45732 598 ft 82 kts 65°
2026-04-29 17:55 50.46282 4.46305 591 ft 42 kts 65°
2026-04-29 17:55 50.46383 4.46655 593 ft 32 kts 65°
2026-04-29 17:55 50.46452 4.46867 596 ft 14 kts 44°
2026-04-29 17:56 50.46517 4.46888 597 ft 7 kts 341°
2026-04-29 17:56 50.46537 4.46875 597 ft 3 kts 335°
2026-04-29 17:56 50.46561 4.46858 596 ft 4 kts 336°
2026-04-29 17:56 50.46573 4.46849 596 ft 2 kts 336°
2026-04-29 17:57 50.46601 4.46840 596 ft 6 kts
2026-04-29 17:57 50.46630 4.46887 596 ft 6 kts 62°
2026-04-29 17:57 50.46653 4.46963 597 ft 10 kts 65°
2026-04-29 17:57 50.46679 4.47051 595 ft 17 kts 65°
2026-04-29 17:58 50.46754 4.47310 593 ft 14 kts 66°
2026-04-29 17:58 50.46796 4.47352 591 ft 5 kts 352°
2026-04-29 17:58 50.46829 4.47332 590 ft 4 kts 335°
2026-04-29 17:58 50.46873 4.47337 588 ft 6 kts 37°
2026-04-29 17:59 50.46915 4.47365 587 ft 7 kts 344°
2026-04-29 17:59 50.46935 4.47350 587 ft 3 kts 335°
2026-04-29 17:59 50.46942 4.47345 587 ft 0 kts 335°